Home > Weather > Lörrach > Past weeks

Flag for Germany Weather for the Past 2 Weeks in Lörrach, Baden-Württemberg, Germany

Now
45 °F

Clear.


Feels Like: 45 °F
Forecast: 35 / 59 °F
Wind: 1 mph from North

Location: Bale-Mulhouse

Current Time: May 4, 2016 at 12:25:07 AM

Latest Report: May 3, 2016 at 11:30 PM


Visibility: 10 mi

Pressure: 30.33 "Hg

Humidity: 93%

Dew Point: 43 °F

Location of LörrachLocation

Historic Weather in Lörrach — Graph

°F

Lörrach Temperature Yesterday

Maximum temperature yesterday: 61 °F (at 11:30 AM)
Minimum temperature yesterday: 43 °F (at 2:30 AM)
Average temperature yesterday: 50 °F

High & Low Weather Summary for the Past Weeks

 TemperatureHumidityPressure
High70 °F (Apr 21, 4:00 PM)100% (Apr 19, 2:00 AM)30.33 "Hg (Apr 19, 2:00 AM)
Low30 °F (Apr 28, 5:30 AM)38% (Apr 21, 6:30 PM)29.68 "Hg (Apr 26, 12:30 PM)
Average47 °F76%30.04 "Hg
* Reported Apr 18 11:00 PM — May 3 11:00 PM, Lörrach, Weather by CustomWeather, © 2016

Note: Actual official high and low records may vary slightly from our data, if they occured in-between our weather recording intervals... More about our weather records

Advertising

Lörrach Weather History for the Previous 24 Hours

Scroll right to see more
 ConditionsComfort  
Time TempWeatherWind HumidityBarometerVisibility
11:00 PM
Tue, May 3
46 °FClear.1 mph87%30.33 "Hg10 mi
10:30 PM46 °FPassing clouds.2 mph93%30.33 "HgN/A
10:00 PM48 °FPassing clouds.3 mph87%30.30 "HgN/A
9:00 PM48 °FSunny.2 mph82%30.30 "Hg10 mi
8:30 PM48 °FBroken clouds.2 mph76%30.27 "HgN/A
8:00 PM48 °FBroken clouds.5 mph87%30.27 "HgN/A
7:30 PM48 °FBroken clouds.2 mph87%30.27 "HgN/A
7:00 PM48 °FSprinkles. Broken clouds.3 mph87%30.24 "HgN/A
6:30 PM48 °FSprinkles. Broken clouds.15 mph87%30.24 "HgN/A
6:00 PM54 °FBroken clouds.2 mph77%30.24 "HgN/A
5:30 PM54 °FScattered clouds.2 mph72%30.21 "HgN/A
5:00 PM54 °FPassing clouds.1 mph77%30.21 "HgN/A
4:30 PM52 °FBroken clouds.2 mph77%30.21 "HgN/A
4:00 PM50 °FBroken clouds.3 mph88%30.24 "HgN/A
3:30 PM48 °FRain. Partly sunny.6 mph94%30.24 "Hg2 mi
3:00 PM50 °FLight rain. Partly sunny.5 mph94%30.21 "Hg6 mi
2:30 PM48 °FLight rain. Fog.8 mph94%30.21 "Hg2 mi
1:30 PM54 °FLight rain. Mostly cloudy.16 mph82%30.15 "Hg6 mi
1:00 PM59 °FRain showers. Broken clouds.15 mph63%30.15 "HgN/A
12:30 PM59 °FBroken clouds.14 mph59%30.15 "HgN/A
12:00 PM61 °FBroken clouds.9 mph55%30.15 "HgN/A
11:30 AM61 °FBroken clouds.9 mph59%30.15 "HgN/A
11:00 AM59 °FPassing clouds.8 mph59%30.15 "HgN/A
10:30 AM57 °FPartly sunny.9 mph63%30.15 "HgN/A
10:00 AM54 °FPartly sunny.6 mph72%30.15 "HgN/A
9:30 AM54 °FPartly sunny.10 mph72%30.15 "HgN/A
9:00 AM54 °FPassing clouds.5 mph77%30.15 "HgN/A
8:30 AM50 °FSunny.2 mph88%30.15 "Hg10 mi
8:00 AM48 °FClear.2 mph94%30.15 "Hg6 mi
7:30 AM46 °FClear.2 mph93%30.15 "Hg5 mi
7:00 AM45 °FClear.3 mph100%30.15 "Hg5 mi
6:30 AM45 °FClear.2 mph100%30.15 "Hg5 mi
6:00 AM43 °FFog.No wind100%30.15 "Hg5 mi
5:30 AM43 °FPassing clouds.2 mph93%30.12 "HgN/A
5:00 AM43 °FClear.3 mph93%30.12 "Hg10 mi
4:30 AM43 °FPassing clouds.3 mph93%30.12 "HgN/A
3:30 AM43 °FClear.2 mph93%30.12 "Hg6 mi
3:00 AM43 °FClear.2 mph93%30.12 "Hg6 mi
2:30 AM43 °FClear.2 mph93%30.12 "Hg10 mi
2:00 AM45 °FClear.No wind93%30.12 "Hg10 mi
1:30 AM46 °FClear.No wind93%30.12 "Hg10 mi
1:00 AM48 °FClear.3 mph87%30.12 "Hg10 mi
12:30 AM48 °FClear.3 mph87%30.15 "Hg10 mi
12:00 AM50 °FClear.1 mph88%30.15 "Hg10 mi
Weather by CustomWeather, © 2016

See weather overviewHow to use our weather pages